FW6512 Weather Reports


time (UTC)temp
C
wind
direction
speed
KPH
gust
KPH
rain 1hr
cm
rain 24hr
cm
rain mn
cm
humidity
%
barometer
mb
20260505124827 12 173 0.0 6.4 0.00 0.00 0.00 88 1012.2
20260505124320 12 211 1.6 3.2 0.00 0.00 0.00 88 1012.2
20260505123814 12 178 0.0 4.8 0.00 0.00 0.00 88 1012.2
20260505123307 12 227 1.6 4.8 0.00 0.00 0.00 88 1012.2
20260505122800 12 191 1.6 4.8 0.00 0.00 0.00 89 1012.2
20260505122253 12 221 0.0 3.2 0.00 0.00 0.00 89 1012.2
20260505121747 12 203 1.6 3.2 0.00 0.00 0.00 89 1012.2
20260505121240 12 196 0.0 3.2 0.00 0.00 0.00 89 1012.2
20260505120733 12 193 0.0 3.2 0.00 0.00 0.00 89 1012.2
20260505120226 12 158 1.6 1.6 0.00 0.00 0.00 89 1012.2
20260505120205 12 198 0.0 1.6 0.00 0.00 0.00 89 1012.2
20260505115214 12 208 0.0 3.2 0.00 0.00 0.00 89 1012.2
20260505114707 12 195 0.0 3.2 0.00 0.00 0.00 89 1012.2
20260505114200 12 187 0.0 1.6 0.00 0.00 0.00 90 1012.2
20260505113919 12 183 0.0 1.6 0.00 0.00 0.00 89 1012.2
20260505113147 12 199 0.0 1.6 0.00 0.00 0.00 89 1012.2
20260505112640 12 201 0.0 3.2 0.00 0.00 0.00 90 1011.9
20260505112134 12 195 0.0 3.2 0.00 0.00 0.00 90 1012.2
20260505111627 12 205 1.6 3.2 0.00 0.00 0.00 90 1012.2
20260505111120 12 191 0.0 1.6 0.00 0.00 0.00 90 1012.2
20260505110613 12 201 0.0 1.6 0.00 0.00 0.00 90 1012.2
20260505110107 12 152 0.0 4.8 0.00 0.00 0.00 90 1012.2
20260505102011 12 226 0.0 4.8 0.00 0.00 0.00 90 1011.9
20260505101505 12 209 3.2 4.8 0.00 0.00 0.00 90 1011.9
20260505100958 12 210 0.0 4.8 0.00 0.00 0.00 90 1011.6
20260505100452 12 190 0.0 3.2 0.00 0.00 0.00 90 1011.6
20260505095944 12 180 0.0 3.2 0.00 0.00 0.00 90 1011.6
20260505095438 12 210 0.0 3.2 0.00 0.00 0.00 90 1011.6
20260505094931 12 197 0.0 3.2 0.00 0.00 0.00 90 1011.6
20260505094424 12 219 1.6 3.2 0.00 0.00 0.00 90 1011.6
20260505094142 12 176 0.0 3.2 0.00 0.00 0.00 90 1011.6
20260505093411 12 180 0.0 3.2 0.00 0.00 0.00 90 1011.6
20260505093103 12 189 0.0 1.6 0.00 0.00 0.00 91 1011.6
20260505092951 12 195 0.0 3.2 0.00 0.00 0.00 90 1011.6
20260505091852 12 195 0.0 3.2 0.00 0.00 0.00 91 1011.2
20260505091344 12 251 1.6 3.2 0.00 0.00 0.00 91 1011.6
20260505090838 12 213 1.6 4.8 0.00 0.00 0.00 92 1011.2
20260505090814 12 183 0.0 4.8 0.00 0.00 0.00 92 1011.2
20260505085825 11 194 0.0 1.6 0.00 0.00 0.00 93 1011.6
20260505085537 11 192 0.0 0.0 0.00 0.00 0.00 93 1011.2
20260505085030 11 194 0.0 0.0 0.00 0.00 0.00 93 1011.2
20260505084305 11 220 0.0 0.0 0.00 0.00 0.00 93 1011.2
20260505083758 11 196 0.0 1.6 0.00 0.00 0.00 93 1011.2
20260505083518 11 194 0.0 1.6 0.00 0.00 0.00 93 1011.6
20260505083008 11 202 0.0 3.2 0.00 0.00 0.00 93 1011.2
20260505082238 11 196 0.0 4.8 0.00 0.00 0.00 92 1011.2
20260505081732 11 216 1.6 6.4 0.00 0.00 0.00 92 1011.6
20260505081225 11 195 0.0 6.4 0.00 0.00 0.00 92 1011.2
20260505080719 11 199 0.0 3.2 0.00 0.00 0.00 92 1011.2
20260505080211 11 200 0.0 3.2 0.00 0.00 0.00 92 1011.2
20260505075705 11 231 1.6 1.6 0.00 0.00 0.00 91 1011.2
20260505075159 12 207 1.6 1.6 0.00 0.00 0.00 91 1011.2
20260505074652 12 194 0.0 1.6 0.00 0.00 0.00 91 1010.9
20260505074146 12 201 0.0 1.6 0.00 0.00 0.00 91 1011.2
20260505073638 12 149 0.0 1.6 0.00 0.00 0.00 91 1010.9
20260505073132 12 200 0.0 3.2 0.00 0.00 0.00 90 1010.9
20260505072625 12 191 0.0 3.2 0.00 0.00 0.00 90 1010.9
20260505072118 12 191 1.6 3.2 0.00 0.00 0.00 90 1010.9
20260505071611 12 188 0.0 3.2 0.00 0.00 0.00 90 1010.5
20260505071325 12 201 1.6 3.2 0.00 0.00 0.00 90 1010.5
20260505070559 12 195 0.0 4.8 0.00 0.00 0.00 90 1010.5
20260505070317 12 221 3.2 4.8 0.00 0.00 0.00 89 1010.9
20260505065545 12 208 1.6 4.8 0.00 0.00 0.00 89 1010.5
20260505065038 12 215 1.6 4.8 0.00 0.00 0.00 89 1010.5
20260505064531 12 184 1.6 6.4 0.00 0.00 0.00 89 1010.2
20260505064245 12 217 1.6 9.7 0.00 0.00 0.00 89 1010.2
20260505063744 12 214 1.6 1.6 0.00 0.00 0.00 89 1010.2
20260505063012 12 203 0.0 4.8 0.00 0.00 0.00 89 1009.9
20260505062505 12 199 0.0 4.8 0.00 0.00 0.00 88 1010.2
20260505061959 12 216 0.0 4.8 0.00 0.00 0.00 88 1010.2
20260505061712 12 232 1.6 4.8 0.00 0.00 0.00 88 1010.2
20260505060945 12 197 0.0 4.8 0.00 0.00 0.00 88 1009.9
20260505060438 12 211 1.6 4.8 0.00 0.00 0.00 88 1009.9
20260505055931 12 190 0.0 11.3 0.00 0.00 0.00 87 1009.9
20260505055649 13 229 1.6 11.3 0.00 0.00 0.00 87 1009.9
20260505054918 13 208 0.0 6.4 0.00 0.00 0.00 87 1009.9
20260505054412 13 214 1.6 6.4 0.00 0.00 0.00 86 1009.9
20260505053905 13 197 0.0 6.4 0.00 0.00 0.00 86 1009.9
20260505053358 13 218 3.2 6.4 0.00 0.00 0.00 86 1009.5
20260505052852 13 205 0.0 6.4 0.00 0.00 0.00 86 1009.5
20260505052345 13 215 1.6 4.8 0.00 0.00 0.00 85 1009.5
20260505051838 13 213 0.0 4.8 0.00 0.00 0.00 85 1009.5
20260505051332 13 207 1.6 6.4 0.00 0.00 0.00 85 1009.5
20260505050825 13 192 0.0 6.4 0.00 0.00 0.00 84 1009.5
20260505050318 13 210 1.6 4.8 0.00 0.00 0.00 84 1009.5
20260505041718 16 230 1.6 12.9 0.00 0.00 0.00 76 1009.2
20260505041212 16 118 1.6 12.9 0.00 0.00 0.00 76 1008.9
20260505040705 16 193 0.0 4.8 0.00 0.00 0.00 75 1008.9
20260505040158 16 196 3.2 4.8 0.00 0.00 0.00 74 1008.9
20260505035652 16 209 0.0 4.8 0.00 0.00 0.00 73 1008.5
20260505035145 16 220 4.8 4.8 0.00 0.00 0.00 73 1008.9
20260505034638 17 205 0.0 4.8 0.00 0.00 0.00 72 1008.5
20260505034131 17 209 0.0 3.2 0.00 0.00 0.00 72 1008.5
20260505033624 17 195 1.6 3.2 0.00 0.00 0.00 71 1008.2
20260505033118 17 220 0.0 4.8 0.00 0.00 0.00 70 1008.2
20260505032612 17 214 0.0 4.8 0.00 0.00 0.00 69 1008.2
20260505032104 17 205 1.6 3.2 0.00 0.00 0.00 69 1008.2
20260505031558 18 201 1.6 6.4 0.00 0.00 0.00 68 1008.2
20260505031051 18 203 1.6 6.4 0.00 0.00 0.00 67 1008.2
20260505030544 18 207 3.2 4.8 0.00 0.00 0.00 66 1007.8
20260505030038 19 225 0.0 4.8 0.00 0.00 0.00 65 1007.8
20260505025531 19 213 0.0 3.2 0.00 0.00 0.00 65 1007.8
20260505025024 20 207 1.6 6.4 0.00 0.00 0.00 64 1007.8
20260505024517 20 209 3.2 6.4 0.00 0.00 0.00 63 1007.8
20260505024011 20 226 1.6 6.4 0.00 0.00 0.00 62 1007.8
20260505023722 21 19 1.6 4.8 0.00 0.00 0.00 61 1007.5
20260505023307 21 206 0.0 4.8 0.00 0.00 0.00 60 1007.5
20260505023205 21 200 0.0 4.8 0.00 0.00 0.00 60 1007.5
20260505021944 21 219 3.2 11.3 0.00 0.00 0.00 59 1007.5
20260505021657 21 182 0.0 11.3 0.00 0.00 0.00 59 1007.5
20260505020930 21 211 0.0 3.2 0.00 0.00 0.00 58 1007.5
20260505020645 22 217 0.0 6.4 0.00 0.00 0.00 57 1007.5
20260505015918 22 184 4.8 6.4 0.00 0.00 0.00 57 1007.5
20260505015633 22 281 1.6 9.7 0.00 0.00 0.00 56 1007.5
20260505014904 22 204 0.0 9.7 0.00 0.00 0.00 56 1007.5
20260505014624 22 236 1.6 6.4 0.00 0.00 0.00 56 1007.5
20260505013851 23 217 1.6 9.7 0.00 0.00 0.00 54 1007.5
20260505013345 23 215 3.2 9.7 0.00 0.00 0.00 54 1007.2
20260505013318 23 200 1.6 4.8 0.00 0.00 0.00 54 1007.5
20260505012331 24 210 3.2 6.4 0.00 0.00 0.00 52 1007.5
20260505011824 25 198 3.2 6.4 0.00 0.00 0.00 52 1007.5
20260505011318 25 209 3.2 6.4 0.00 0.00 0.00 51 1007.2
20260505010812 25 205 0.0 6.4 0.00 0.00 0.00 49 1007.8
20260505010750 26 214 1.6 4.8 0.00 0.00 0.00 49 1007.5
20260505005757 26 234 3.2 4.8 0.00 0.00 0.00 49 1007.5
20260505005249 25 208 0.0 6.4 0.00 0.00 0.00 50 1007.5
20260505005008 25 220 1.6 6.4 0.00 0.00 0.00 50 1007.8
20260505004459 26 215 3.2 9.7 0.00 0.00 0.00 49 1007.5
20260505003730 26 221 1.6 9.7 0.00 0.00 0.00 48 1007.5
20260505003223 26 285 1.6 9.7 0.00 0.00 0.00 47 1007.5
20260505002716 26 206 3.2 11.3 0.00 0.00 0.00 48 1007.5
20260505002210 26 213 1.6 11.3 0.00 0.00 0.00 48 1007.5
20260505001704 26 220 3.2 6.4 0.00 0.00 0.00 47 1007.5
20260505001156 26 219 1.6 6.4 0.00 0.00 0.00 48 1007.5
20260505000909 26 297 3.2 4.8 0.00 0.00 0.00 47 1007.5
20260505000143 26 204 1.6 9.7 0.00 0.00 0.00 47 1007.2
20260504235636 26 206 6.4 9.7 0.00 0.00 0.00 46 1007.5
20260504235130 26 214 1.6 6.4 0.00 0.00 0.00 49 1007.8
20260504234623 26 206 0.0 9.7 0.00 0.00 0.00 47 1007.5
20260504234117 27 205 0.0 9.7 0.00 0.00 0.00 47 1007.5
20260504233609 26 191 1.6 6.4 0.00 0.00 0.00 47 1007.5
20260504233103 26 218 1.6 9.7 0.00 0.00 0.00 47 1007.5
20260504232825 26 242 1.6 9.7 0.00 0.00 0.00 48 1007.5
20260504232050 27 236 3.2 4.8 0.00 0.00 0.00 47 1007.5
20260504231543 26 206 0.0 9.7 0.00 0.00 0.00 46 1007.5
20260504231036 26 258 1.6 9.7 0.00 0.00 0.00 47 1007.5
20260504230529 26 194 3.2 9.7 0.00 0.00 0.00 47 1007.8
20260504230023 26 209 6.4 9.7 0.00 0.00 0.00 47 1007.8
20260504225515 26 283 1.6 6.4 0.00 0.00 0.00 47 1007.8
20260504225009 27 224 3.2 6.4 0.00 0.00 0.00 45 1007.8
20260504224503 27 215 1.6 4.8 0.00 0.00 0.00 43 1007.8
20260504223956 27 199 0.0 4.8 0.00 0.00 0.00 45 1007.8
20260504223930 27 222 1.6 4.8 0.00 0.00 0.00 43 1008.2
20260504222942 27 205 1.6 6.4 0.00 0.00 0.00 43 1007.8
20260504222435 26 235 1.6 6.4 0.00 0.00 0.00 43 1008.2
20260504221928 27 330 3.2 6.4 0.00 0.00 0.00 44 1008.2
20260504221422 26 218 1.6 6.4 0.00 0.00 0.00 45 1008.2
20260504221136 26 206 3.2 6.4 0.00 0.00 0.00 48 1008.2
20260504220408 26 190 1.6 4.8 0.00 0.00 0.00 48 1008.2
20260504215902 26 206 1.6 6.4 0.00 0.00 0.00 45 1008.2
20260504215355 26 271 4.8 9.7 0.00 0.00 0.00 46 1008.5
20260504215118 26 179 1.6 9.7 0.00 0.00 0.00 47 1008.2
20260504214341 26 147 0.0 9.7 0.00 0.00 0.00 46 1008.5
20260504213835 26 221 3.2 9.7 0.00 0.00 0.00 48 1008.5
20260504213552 26 213 3.2 6.4 0.00 0.00 0.00 46 1008.5
20260504212821 26 222 1.6 4.8 0.00 0.00 0.00 46 1008.5
20260504212314 26 214 1.6 4.8 0.00 0.00 0.00 46 1008.5
20260504212025 26 191 1.6 9.7 0.00 0.00 0.00 47 1008.5
20260504211525 26 217 0.0 9.7 0.00 0.00 0.00 47 1008.5
20260504210755 26 181 0.0 6.4 0.00 0.00 0.00 48 1008.5
20260504210248 26 218 3.2 9.7 0.00 0.00 0.00 46 1008.5
20260504205741 26 224 0.0 9.7 0.00 0.00 0.00 47 1008.5
20260504205234 26 214 0.0 6.4 0.00 0.00 0.00 46 1008.5
20260504204727 25 208 1.6 6.4 0.00 0.00 0.00 47 1008.5
20260504204221 25 204 1.6 6.4 0.00 0.00 0.00 46 1008.5
20260504203714 25 213 0.0 6.4 0.00 0.00 0.00 48 1008.5
20260504203208 25 235 0.0 6.4 0.00 0.00 0.00 46 1008.2
20260504202701 25 207 3.2 11.3 0.00 0.00 0.00 46 1008.9
20260504202420 25 227 4.8 6.4 0.00 0.00 0.00 46 1008.5
20260504201647 25 200 0.0 4.8 0.00 0.00 0.00 45 1008.5
20260504201142 25 292 3.2 4.8 0.00 0.00 0.00 46 1008.9
20260504200635 25 205 1.6 4.8 0.00 0.00 0.00 47 1008.9
20260504200127 25 220 1.6 4.8 0.00 0.00 0.00 46 1008.5
20260504195619 25 174 0.0 4.8 0.00 0.00 0.00 46 1008.9
20260504195112 25 196 1.6 4.8 0.00 0.00 0.00 46 1008.5
20260504194605 25 186 3.2 4.8 0.00 0.00 0.00 49 1008.9
20260504194058 25 202 0.0 3.2 0.00 0.00 0.00 46 1008.9
20260504193552 24 200 1.6 9.7 0.00 0.00 0.00 47 1008.9
20260504193045 23 199 1.6 9.7 0.00 0.00 0.00 49 1008.9
20260504192538 24 201 1.6 4.8 0.00 0.00 0.00 48 1008.9
20260504192257 23 265 0.0 6.4 0.00 0.00 0.00 51 1008.9
20260504191749 23 156 0.0 9.7 0.00 0.00 0.00 50 1008.9
20260504191019 23 207 3.2 9.7 0.00 0.00 0.00 53 1008.9
20260504190512 23 219 1.6 4.8 0.00 0.00 0.00 50 1009.2
20260504190005 23 246 1.6 4.8 0.00 0.00 0.00 51 1009.2
20260504185458 22 189 1.6 6.4 0.00 0.00 0.00 53 1009.2
20260504184951 22 210 1.6 6.4 0.00 0.00 0.00 52 1009.2
20260504184444 22 223 3.2 4.8 0.00 0.00 0.00 53 1009.2
20260504183937 23 201 1.6 4.8 0.00 0.00 0.00 52 1009.2
20260504183918 22 218 1.6 4.8 0.00 0.00 0.00 51 1009.5
20260504182924 22 207 0.0 6.4 0.00 0.00 0.00 54 1009.5
20260504182418 22 196 1.6 6.4 0.00 0.00 0.00 55 1009.5
20260504181911 22 256 0.0 4.8 0.00 0.00 0.00 55 1009.5
20260504181404 22 348 1.6 3.2 0.00 0.00 0.00 53 1009.5
20260504181122 22 230 1.6 4.8 0.00 0.00 0.00 53 1009.5
20260504180352 22 198 1.6 3.2 0.00 0.00 0.00 54 1009.5
20260504175845 21 228 1.6 3.2 0.00 0.00 0.00 57 1009.2
20260504175338 21 200 0.0 4.8 0.00 0.00 0.00 54 1009.5
20260504174831 21 94 1.6 9.7 0.00 0.00 0.00 57 1009.2
20260504174324 20 245 1.6 9.7 0.00 0.00 0.00 59 1009.5
20260504173818 21 163 1.6 4.8 0.00 0.00 0.00 55 1009.2
20260504173311 21 200 1.6 4.8 0.00 0.00 0.00 55 1009.5
20260504172804 21 212 1.6 4.8 0.00 0.00 0.00 58 1009.2
20260504172258 21 210 3.2 4.8 0.00 0.00 0.00 58 1009.2
20260504172020 20 210 0.0 6.4 0.00 0.00 0.00 59 1009.2
20260504171244 20 188 0.0 6.4 0.00 0.00 0.00 60 1009.2
20260504170737 20 181 0.0 4.8 0.00 0.00 0.00 60 1009.2
20260504170231 20 107 1.6 6.4 0.00 0.00 0.00 62 1009.2
20260504160110 17 197 0.0 6.4 0.00 0.00 0.00 67 1009.2
20260504151003 16 201 0.0 3.2 0.00 0.00 0.00 73 1008.9
20260504150456 16 203 0.0 3.2 0.00 0.00 0.00 74 1008.5
20260504150218 16 192 0.0 3.2 0.00 0.00 0.00 76 1008.9
20260504141107 13 194 0.0 0.0 0.00 0.00 0.00 90 1008.2
20260504140335 12 193 0.0 0.0 0.00 0.00 0.00 91 1007.8
20260504130722 11 180 0.0 0.0 0.00 0.00 0.00 94 1007.8
20260504130215 11 194 0.0 0.0 0.00 0.00 0.00 94 1007.8